| time (UTC) | temp F | wind direction | speed knots | gust knots | rain 1hr in | rain 24hr in | rain mn in | humidity % | barometer mb |
| 20260505123743 | 72 | 0.0 | 0.0 | 0.00 | 0.00 | 0.00 | 63 | 1027.6 | |
| 20260505123512 | 72 | 0.0 | 0.0 | 0.00 | 0.00 | 0.00 | 62 | 1027.6 | |
| 20260505123003 | 72 | 0.0 | 0.0 | 0.00 | 0.00 | 0.00 | 64 | 1027.6 | |
| 20260505122454 | 72 | 0.0 | 0.0 | 0.00 | 0.00 | 0.00 | 64 | 1027.7 | |
| 20260505121950 | 71 | 0.0 | 0.0 | 0.00 | 0.00 | 0.00 | 63 | 1027.6 | |
| 20260505121441 | 71 | 0.0 | 0.0 | 0.00 | 0.00 | 0.00 | 64 | 1027.5 | |
| 20260505120935 | 71 | 0.0 | 0.0 | 0.00 | 0.00 | 0.00 | 63 | 1027.5 | |
| 20260505120428 | 71 | 0.0 | 0.0 | 0.00 | 0.00 | 0.00 | 65 | 1027.4 | |
| 20260505115924 | 70 | 0.0 | 0.0 | 0.00 | 0.00 | 0.00 | 66 | 1027.3 | |
| 20260505115418 | 70 | 0.0 | 0.0 | 0.00 | 0.00 | 0.00 | 65 | 1027.2 | |
| 20260505114911 | 70 | 0.0 | 0.0 | 0.00 | 0.00 | 0.00 | 66 | 1027.2 | |
| 20260505114405 | 69 | 0.0 | 0.0 | 0.00 | 0.00 | 0.00 | 66 | 1027.2 | |
| 20260505113857 | 69 | 0.0 | 0.0 | 0.00 | 0.00 | 0.00 | 67 | 1027.2 | |
| 20260505113351 | 69 | 0.0 | 0.0 | 0.00 | 0.00 | 0.00 | 66 | 1027.1 | |
| 20260505112844 | 69 | 0.0 | 0.0 | 0.00 | 0.00 | 0.00 | 66 | 1027.1 | |
| 20260505112338 | 69 | 0.0 | 0.0 | 0.00 | 0.00 | 0.00 | 68 | 1027.1 | |
| 20260505111829 | 69 | 0.0 | 0.0 | 0.00 | 0.00 | 0.00 | 67 | 1027.0 | |
| 20260505111322 | 68 | 0.0 | 0.0 | 0.00 | 0.00 | 0.00 | 69 | 1026.8 | |
| 20260505110818 | 68 | 0.0 | 0.0 | 0.00 | 0.00 | 0.00 | 68 | 1026.8 | |
| 20260505101714 | 69 | 0.0 | 0.0 | 0.00 | 0.00 | 0.00 | 65 | 1026.4 | |
| 20260505101208 | 67 | 0.0 | 0.0 | 0.00 | 0.00 | 0.00 | 68 | 1026.4 | |
| 20260505100704 | 66 | 0.0 | 0.0 | 0.00 | 0.00 | 0.00 | 71 | 1026.4 | |
| 20260505100200 | 65 | 0.0 | 0.0 | 0.00 | 0.00 | 0.00 | 73 | 1026.3 | |
| 20260505095656 | 64 | 0.0 | 0.0 | 0.00 | 0.00 | 0.00 | 75 | 1026.3 | |
| 20260505095152 | 64 | 0.0 | 0.0 | 0.00 | 0.00 | 0.00 | 75 | 1026.2 | |
| 20260505094647 | 63 | 0.0 | 0.0 | 0.00 | 0.00 | 0.00 | 76 | 1026.1 | |
| 20260505094139 | 63 | 0.0 | 0.0 | 0.00 | 0.00 | 0.00 | 76 | 1026.1 | |
| 20260505093635 | 63 | 0.0 | 0.0 | 0.00 | 0.00 | 0.00 | 77 | 1026.0 | |
| 20260505093129 | 63 | 0.0 | 0.0 | 0.00 | 0.00 | 0.00 | 77 | 1026.0 | |
| 20260505092622 | 63 | 0.0 | 0.0 | 0.00 | 0.00 | 0.00 | 77 | 1025.9 | |
| 20260505092118 | 63 | 0.0 | 0.0 | 0.00 | 0.00 | 0.00 | 77 | 1025.8 | |
| 20260505091105 | 63 | 0.0 | 0.0 | 0.00 | 0.00 | 0.00 | 77 | 1025.8 | |
| 20260505090559 | 63 | 0.0 | 0.0 | 0.00 | 0.00 | 0.00 | 77 | 1025.7 | |
| 20260505090054 | 63 | 0.0 | 0.0 | 0.00 | 0.00 | 0.00 | 77 | 1025.7 | |
| 20260505085044 | 63 | 0.0 | 0.0 | 0.00 | 0.00 | 0.00 | 77 | 1025.4 | |
| 20260505084536 | 63 | 0.0 | 0.0 | 0.00 | 0.00 | 0.00 | 77 | 1025.4 | |
| 20260505084032 | 63 | 0.0 | 0.0 | 0.00 | 0.00 | 0.00 | 77 | 1025.3 | |
| 20260505083525 | 63 | 0.0 | 0.0 | 0.00 | 0.00 | 0.00 | 77 | 1025.2 | |
| 20260505081459 | 63 | 0.0 | 0.0 | 0.00 | 0.00 | 0.00 | 77 | 1025.1 | |
| 20260505080955 | 63 | 0.0 | 0.0 | 0.00 | 0.00 | 0.00 | 77 | 1025.1 | |
| 20260505075940 | 64 | 0.0 | 0.0 | 0.00 | 0.00 | 0.00 | 76 | 1025.0 | |
| 20260505074927 | 64 | 0.0 | 0.0 | 0.00 | 0.00 | 0.00 | 76 | 1024.9 | |
| 20260505074421 | 64 | 0.0 | 0.0 | 0.00 | 0.00 | 0.00 | 76 | 1025.0 | |
| 20260505073917 | 64 | 0.0 | 0.0 | 0.00 | 0.00 | 0.00 | 76 | 1024.9 | |
| 20260505073411 | 64 | 0.0 | 0.0 | 0.00 | 0.00 | 0.00 | 76 | 1024.9 | |
| 20260505072357 | 64 | 0.0 | 0.0 | 0.00 | 0.00 | 0.00 | 76 | 1025.0 | |
| 20260505071851 | 64 | 0.0 | 0.0 | 0.00 | 0.00 | 0.00 | 76 | 1025.0 | |
| 20260505071342 | 64 | 0.0 | 0.0 | 0.00 | 0.00 | 0.00 | 76 | 1025.1 | |
| 20260505070837 | 64 | 0.0 | 0.0 | 0.00 | 0.00 | 0.00 | 76 | 1025.1 | |
| 20260505070333 | 64 | 0.0 | 0.0 | 0.00 | 0.00 | 0.00 | 76 | 1025.2 | |
| 20260505065317 | 64 | 0.0 | 0.0 | 0.00 | 0.00 | 0.00 | 76 | 1025.2 | |
| 20260505064811 | 64 | 0.0 | 0.0 | 0.00 | 0.00 | 0.00 | 76 | 1025.1 | |
| 20260505064307 | 64 | 0.0 | 0.0 | 0.00 | 0.00 | 0.00 | 76 | 1025.2 | |
| 20260505063255 | 64 | 0.0 | 0.0 | 0.00 | 0.00 | 0.00 | 76 | 1025.3 | |
| 20260505062749 | 64 | 0.0 | 0.0 | 0.00 | 0.00 | 0.00 | 76 | 1025.3 | |
| 20260505062244 | 64 | 0.0 | 0.0 | 0.00 | 0.00 | 0.00 | 76 | 1025.2 | |
| 20260505061740 | 64 | 0.0 | 0.0 | 0.00 | 0.00 | 0.00 | 76 | 1025.2 | |
| 20260505061236 | 64 | 0.0 | 0.0 | 0.00 | 0.00 | 0.00 | 76 | 1025.3 | |
| 20260505060730 | 65 | 0.0 | 0.0 | 0.00 | 0.00 | 0.00 | 76 | 1025.3 | |
| 20260505060226 | 64 | 0.0 | 0.0 | 0.00 | 0.00 | 0.00 | 76 | 1025.3 | |
| 20260505055210 | 65 | 0.0 | 0.0 | 0.00 | 0.00 | 0.00 | 76 | 1025.3 | |
| 20260505054703 | 65 | 0.0 | 0.0 | 0.00 | 0.00 | 0.00 | 76 | 1025.3 | |
| 20260505054155 | 65 | 0.0 | 0.0 | 0.00 | 0.00 | 0.00 | 75 | 1025.3 | |
| 20260505053649 | 65 | 0.0 | 0.0 | 0.00 | 0.00 | 0.00 | 75 | 1025.3 | |
| 20260505052131 | 65 | 0.0 | 0.0 | 0.00 | 0.00 | 0.00 | 75 | 1025.4 | |
| 20260505051625 | 65 | 0.0 | 0.0 | 0.00 | 0.00 | 0.00 | 75 | 1025.3 | |
| 20260505051121 | 65 | 0.0 | 0.0 | 0.00 | 0.00 | 0.00 | 75 | 1025.4 | |
| 20260505050612 | 65 | 0.0 | 0.0 | 0.00 | 0.00 | 0.00 | 75 | 1025.4 | |
| 20260505050106 | 65 | 0.0 | 0.0 | 0.00 | 0.00 | 0.00 | 75 | 1025.4 | |
| 20260505041506 | 65 | 0.0 | 0.0 | 0.00 | 0.00 | 0.00 | 75 | 1025.6 | |
| 20260505041000 | 65 | 0.0 | 0.0 | 0.00 | 0.00 | 0.00 | 75 | 1025.6 | |
| 20260505040453 | 65 | 0.0 | 0.0 | 0.00 | 0.00 | 0.00 | 75 | 1025.7 | |
| 20260505035946 | 65 | 0.0 | 0.0 | 0.00 | 0.00 | 0.00 | 75 | 1025.7 | |
| 20260505035440 | 65 | 0.0 | 0.0 | 0.00 | 0.00 | 0.00 | 75 | 1025.7 | |
| 20260505034425 | 66 | 0.0 | 0.0 | 0.00 | 0.00 | 0.00 | 74 | 1025.8 | |
| 20260505033919 | 65 | 0.0 | 0.0 | 0.00 | 0.00 | 0.00 | 75 | 1025.8 | |
| 20260505032906 | 66 | 0.0 | 0.0 | 0.00 | 0.00 | 0.00 | 74 | 1025.8 | |
| 20260505032359 | 66 | 0.0 | 0.0 | 0.00 | 0.00 | 0.00 | 74 | 1025.8 | |
| 20260505031854 | 66 | 0.0 | 0.0 | 0.00 | 0.00 | 0.00 | 74 | 1025.8 | |
| 20260505031348 | 66 | 0.0 | 0.0 | 0.00 | 0.00 | 0.00 | 74 | 1025.8 | |
| 20260505030842 | 66 | 0.0 | 0.0 | 0.00 | 0.00 | 0.00 | 74 | 1025.8 | |
| 20260505025827 | 66 | 0.0 | 0.0 | 0.00 | 0.00 | 0.00 | 74 | 1025.9 | |
| 20260505025323 | 66 | 0.0 | 0.0 | 0.00 | 0.00 | 0.00 | 74 | 1025.8 | |
| 20260505024816 | 66 | 0.0 | 0.0 | 0.00 | 0.00 | 0.00 | 74 | 1025.9 | |
| 20260505024311 | 66 | 0.0 | 0.0 | 0.00 | 0.00 | 0.00 | 74 | 1025.8 | |
| 20260505023807 | 66 | 0.0 | 0.0 | 0.00 | 0.00 | 0.00 | 74 | 1025.8 | |
| 20260505023300 | 66 | 0.0 | 0.0 | 0.00 | 0.00 | 0.00 | 75 | 1025.9 | |
| 20260505022756 | 66 | 0.0 | 0.0 | 0.00 | 0.00 | 0.00 | 75 | 1025.9 | |
| 20260505022248 | 66 | 0.0 | 0.0 | 0.00 | 0.00 | 0.00 | 74 | 1025.9 | |
| 20260505021742 | 67 | 0.0 | 0.0 | 0.00 | 0.00 | 0.00 | 73 | 1025.9 | |
| 20260505021235 | 67 | 0.0 | 0.0 | 0.00 | 0.00 | 0.00 | 73 | 1025.9 | |
| 20260505020728 | 67 | 0.0 | 0.0 | 0.00 | 0.00 | 0.00 | 73 | 1025.9 | |
| 20260505020222 | 67 | 0.0 | 0.0 | 0.00 | 0.00 | 0.00 | 73 | 1026.0 | |
| 20260505015716 | 67 | 0.0 | 0.0 | 0.00 | 0.00 | 0.00 | 73 | 1026.0 | |
| 20260505015210 | 67 | 0.0 | 0.0 | 0.00 | 0.00 | 0.00 | 73 | 1026.0 | |
| 20260505014703 | 67 | 0.0 | 0.0 | 0.00 | 0.00 | 0.00 | 73 | 1026.0 | |
| 20260505014159 | 67 | 0.0 | 0.0 | 0.00 | 0.00 | 0.00 | 73 | 1026.0 | |
| 20260505013654 | 67 | 0.0 | 0.0 | 0.00 | 0.00 | 0.00 | 73 | 1025.9 | |
| 20260505013149 | 67 | 0.0 | 0.0 | 0.00 | 0.00 | 0.00 | 73 | 1025.9 | |
| 20260505012135 | 68 | 0.0 | 0.0 | 0.00 | 0.00 | 0.00 | 73 | 1025.9 | |
| 20260505011629 | 68 | 0.0 | 0.0 | 0.00 | 0.00 | 0.00 | 73 | 1025.9 | |
| 20260505010616 | 68 | 0.0 | 0.0 | 0.00 | 0.00 | 0.00 | 73 | 1025.9 | |
| 20260505010110 | 68 | 0.0 | 0.0 | 0.00 | 0.00 | 0.00 | 74 | 1025.8 | |
| 20260505005605 | 68 | 0.0 | 0.0 | 0.00 | 0.00 | 0.00 | 73 | 1025.7 | |
| 20260505005101 | 68 | 0.0 | 0.0 | 0.00 | 0.00 | 0.00 | 74 | 1025.8 | |
| 20260505004555 | 68 | 0.0 | 0.0 | 0.00 | 0.00 | 0.00 | 74 | 1025.7 | |
| 20260505004050 | 68 | 0.0 | 0.0 | 0.00 | 0.00 | 0.00 | 74 | 1025.7 | |
| 20260505003542 | 68 | 0.0 | 0.0 | 0.00 | 0.00 | 0.00 | 74 | 1025.7 | |
| 20260505003035 | 68 | 0.0 | 0.0 | 0.00 | 0.00 | 0.00 | 74 | 1025.6 | |
| 20260505002530 | 68 | 0.0 | 0.0 | 0.00 | 0.00 | 0.00 | 73 | 1025.6 | |
| 20260505002024 | 68 | 0.0 | 0.0 | 0.00 | 0.00 | 0.00 | 73 | 1025.5 | |
| 20260505001518 | 68 | 0.0 | 0.0 | 0.00 | 0.00 | 0.00 | 74 | 1025.5 | |
| 20260505001011 | 68 | 0.0 | 0.0 | 0.00 | 0.00 | 0.00 | 74 | 1025.4 | |
| 20260505000504 | 68 | 0.0 | 0.0 | 0.00 | 0.00 | 0.00 | 74 | 1025.4 | |
| 20260504235957 | 68 | 0.0 | 0.0 | 0.00 | 0.00 | 0.00 | 74 | 1025.3 | |
| 20260504235450 | 68 | 0.0 | 0.0 | 0.00 | 0.00 | 0.00 | 74 | 1025.4 | |
| 20260504234944 | 68 | 0.0 | 0.0 | 0.00 | 0.00 | 0.00 | 74 | 1025.3 | |
| 20260504234437 | 68 | 0.0 | 0.0 | 0.00 | 0.00 | 0.00 | 74 | 1025.2 | |
| 20260504233932 | 68 | 0.0 | 0.0 | 0.00 | 0.00 | 0.00 | 75 | 1025.2 | |
| 20260504232920 | 68 | 0.0 | 0.0 | 0.00 | 0.00 | 0.00 | 74 | 1025.1 | |
| 20260504232414 | 68 | 0.0 | 0.0 | 0.00 | 0.00 | 0.00 | 74 | 1025.0 | |
| 20260504231909 | 68 | 0.0 | 0.0 | 0.00 | 0.00 | 0.00 | 74 | 1025.0 | |
| 20260504231403 | 68 | 0.0 | 0.0 | 0.00 | 0.00 | 0.00 | 74 | 1024.9 | |
| 20260504230857 | 68 | 0.0 | 0.0 | 0.00 | 0.00 | 0.00 | 74 | 1024.9 | |
| 20260504230352 | 68 | 0.0 | 0.0 | 0.00 | 0.00 | 0.00 | 74 | 1024.9 | |
| 20260504225335 | 68 | 0.0 | 0.0 | 0.00 | 0.00 | 0.00 | 75 | 1024.8 | |
| 20260504224830 | 68 | 0.0 | 0.0 | 0.00 | 0.00 | 0.00 | 75 | 1024.8 | |
| 20260504224326 | 68 | 0.0 | 0.0 | 0.00 | 0.00 | 0.00 | 75 | 1024.7 | |
| 20260504223822 | 68 | 0.0 | 0.0 | 0.00 | 0.00 | 0.00 | 75 | 1024.7 | |
| 20260504223318 | 68 | 0.0 | 0.0 | 0.00 | 0.00 | 0.00 | 75 | 1024.7 | |
| 20260504221758 | 68 | 0.0 | 0.0 | 0.00 | 0.00 | 0.00 | 77 | 1024.4 | |
| 20260504220236 | 67 | 0.0 | 0.0 | 0.00 | 0.00 | 0.00 | 78 | 1024.3 | |
| 20260504215730 | 67 | 0.0 | 0.0 | 0.00 | 0.00 | 0.00 | 77 | 1024.2 | |
| 20260504215225 | 67 | 0.0 | 0.0 | 0.00 | 0.00 | 0.00 | 77 | 1024.3 | |
| 20260504214721 | 67 | 0.0 | 0.0 | 0.00 | 0.00 | 0.00 | 77 | 1024.1 | |
| 20260504214216 | 67 | 0.0 | 0.0 | 0.00 | 0.00 | 0.00 | 78 | 1024.1 | |
| 20260504213712 | 67 | 0.0 | 0.0 | 0.00 | 0.00 | 0.00 | 79 | 1024.1 | |
| 20260504213655 | 67 | 0.0 | 0.0 | 0.00 | 0.00 | 0.00 | 78 | 1024.0 | |
| 20260504213542 | 67 | 0.0 | 0.0 | 0.00 | 0.00 | 0.00 | 79 | 1023.9 | |
| 20260504213137 | 67 | 0.0 | 0.0 | 0.00 | 0.00 | 0.00 | 78 | 1023.8 | |
| 20260504212633 | 67 | 0.0 | 0.0 | 0.00 | 0.00 | 0.00 | 77 | 1023.8 | |
| 20260504211620 | 68 | 0.0 | 0.0 | 0.00 | 0.00 | 0.00 | 75 | 1023.8 | |
| 20260504211114 | 68 | 0.0 | 0.0 | 0.00 | 0.00 | 0.00 | 74 | 1023.7 | |
| 20260504211102 | 68 | 0.0 | 0.0 | 0.00 | 0.00 | 0.00 | 74 | 1023.6 | |
| 20260504210938 | 68 | 0 | 0.0 | 0.0 | 0.00 | 0.00 | 0.00 | 75 | 1023.6 |
| 20260504210651 | 68 | 0 | 0.0 | 0.0 | 0.00 | 0.00 | 0.00 | 74 | 1023.6 |
| 20260504210146 | 70 | 0 | 0.0 | 0.0 | 0.00 | 0.00 | 0.00 | 72 | 1023.5 |
| 20260504205641 | 71 | 0 | 0.0 | 0.0 | 0.00 | 0.00 | 0.00 | 69 | 1023.4 |
| 20260504205135 | 71 | 0 | 0.0 | 0.0 | 0.00 | 0.00 | 0.00 | 68 | 1023.3 |
| 20260504204121 | 72 | 0 | 0.0 | 0.0 | 0.00 | 0.00 | 0.00 | 66 | 1023.3 |
| 20260504203612 | 72 | 0 | 0.0 | 0.0 | 0.00 | 0.00 | 0.00 | 64 | 1023.3 |
| 20260504203104 | 73 | 0 | 0.0 | 0.0 | 0.00 | 0.00 | 0.00 | 65 | 1023.2 |
| 20260504202559 | 73 | 0 | 0.0 | 0.0 | 0.00 | 0.00 | 0.00 | 62 | 1023.2 |
| 20260504201547 | 74 | 0 | 0.0 | 0.0 | 0.00 | 0.00 | 0.00 | 61 | 1023.1 |
| 20260504200534 | 74 | 0 | 0.0 | 0.0 | 0.00 | 0.00 | 0.00 | 59 | 1023.0 |
| 20260504200030 | 74 | 0 | 0.0 | 0.0 | 0.00 | 0.00 | 0.00 | 57 | 1023.0 |
| 20260504195524 | 74 | 0 | 0.0 | 0.0 | 0.00 | 0.00 | 0.00 | 56 | 1022.9 |
| 20260504194510 | 75 | 0 | 0.0 | 0.0 | 0.00 | 0.00 | 0.00 | 56 | 1022.8 |
| 20260504194005 | 75 | 0 | 0.0 | 0.0 | 0.00 | 0.00 | 0.00 | 55 | 1022.6 |
| 20260504193501 | 75 | 0 | 0.0 | 0.0 | 0.00 | 0.00 | 0.00 | 55 | 1022.7 |
| 20260504192955 | 75 | 0 | 0.0 | 0.0 | 0.00 | 0.00 | 0.00 | 55 | 1022.8 |
| 20260504192448 | 75 | 0 | 0.0 | 0.0 | 0.00 | 0.00 | 0.00 | 54 | 1022.8 |
| 20260504191943 | 75 | 0 | 0.0 | 0.0 | 0.00 | 0.00 | 0.00 | 55 | 1022.6 |
| 20260504191438 | 75 | 0 | 0.0 | 0.0 | 0.00 | 0.00 | 0.00 | 55 | 1022.5 |
| 20260504190934 | 75 | 0 | 0.0 | 0.0 | 0.00 | 0.00 | 0.00 | 55 | 1022.6 |
| 20260504190426 | 75 | 0 | 0.0 | 0.0 | 0.00 | 0.00 | 0.00 | 55 | 1022.5 |
| 20260504185919 | 76 | 0 | 0.0 | 0.0 | 0.00 | 0.00 | 0.00 | 54 | 1022.5 |
| 20260504184903 | 76 | 0 | 0.0 | 0.0 | 0.00 | 0.00 | 0.00 | 54 | 1022.5 |
| 20260504184359 | 76 | 0 | 0.0 | 0.0 | 0.00 | 0.00 | 0.00 | 54 | 1022.5 |
| 20260504183850 | 75 | 0 | 0.0 | 0.0 | 0.00 | 0.00 | 0.00 | 54 | 1022.5 |
| 20260504183344 | 76 | 0 | 0.0 | 0.0 | 0.00 | 0.00 | 0.00 | 53 | 1022.5 |
| 20260504182840 | 76 | 0 | 0.0 | 0.0 | 0.00 | 0.00 | 0.00 | 53 | 1022.5 |
| 20260504182333 | 76 | 0 | 0.0 | 0.0 | 0.00 | 0.00 | 0.00 | 53 | 1022.5 |
| 20260504181827 | 76 | 0 | 0.0 | 0.0 | 0.00 | 0.00 | 0.00 | 53 | 1022.6 |
| 20260504181322 | 76 | 0 | 0.0 | 0.0 | 0.00 | 0.00 | 0.00 | 53 | 1022.5 |
| 20260504180816 | 76 | 0 | 0.0 | 0.0 | 0.00 | 0.00 | 0.00 | 52 | 1022.5 |
| 20260504180308 | 76 | 0 | 0.0 | 0.0 | 0.00 | 0.00 | 0.00 | 53 | 1022.5 |
| 20260504175801 | 76 | 0 | 0.0 | 0.0 | 0.00 | 0.00 | 0.00 | 52 | 1022.5 |
| 20260504174750 | 76 | 0 | 0.0 | 0.0 | 0.00 | 0.00 | 0.00 | 53 | 1022.8 |
| 20260504173737 | 76 | 0 | 0.0 | 0.0 | 0.00 | 0.00 | 0.00 | 53 | 1022.7 |
| 20260504173233 | 76 | 0 | 0.0 | 0.0 | 0.00 | 0.00 | 0.00 | 52 | 1022.7 |
| 20260504172726 | 76 | 0 | 0.0 | 0.0 | 0.00 | 0.00 | 0.00 | 52 | 1022.7 |
| 20260504172222 | 78 | 0 | 0.0 | 0.0 | 0.00 | 0.00 | 0.00 | 51 | 1022.7 |
| 20260504171717 | 78 | 0 | 0.0 | 0.0 | 0.00 | 0.00 | 0.00 | 51 | 1022.8 |
| 20260504171213 | 77 | 0 | 0.0 | 0.0 | 0.00 | 0.00 | 0.00 | 51 | 1023.0 |
| 20260504170707 | 77 | 0 | 0.0 | 0.0 | 0.00 | 0.00 | 0.00 | 51 | 1022.9 |
| 20260504170200 | 77 | 0 | 0.0 | 0.0 | 0.00 | 0.00 | 0.00 | 51 | 1022.9 |
| 20260504150442 | 75 | 0 | 0.0 | 0.0 | 0.00 | 0.00 | 0.00 | 51 | 1024.0 |
| 20260504140834 | 75 | 0 | 0.0 | 0.0 | 0.00 | 0.00 | 0.00 | 51 | 1024.8 |
| 20260504130718 | 72 | 0 | 0.0 | 0.0 | 0.00 | 0.00 | 0.00 | 56 | 1025.3 |
| 20260504130211 | 72 | 0 | 0.0 | 0.0 | 0.00 | 0.00 | 0.00 | 57 | 1025.4 |